Location: Telluride
(37.9375°N, 107.8123°W)
Time: 23:36:52
(UTC+00:00)

Daily predictions for brighter satellites

Satellite Brightness Start Highest point End
(mag) Time Altitude Azimuth Time Altitude Azimuth Time Altitude Azimuth
ATLAS CENTAUR R/B 3.8 12:04:23 10° N 12:07:31 21° NE 12:10:48 10° E
X-37B 2.5 12:08:32 21° N 12:08:32 21° N 12:10:51 10° NE
Cosmos 2278 3.6 12:03:35 10° NNW 12:09:16 68° WSW 12:14:55 10° S
Meteor 1-27 4.4 12:11:13 32° SW 12:13:18 46° WNW 12:18:38 10° N
SL-08 R/B 4.3 12:08:08 10° N 12:14:18 72° W 12:20:23 10° S
SL-08 ROCKET BODY 4.3 12:08:56 10° N 12:15:00 75° W 12:21:07 10° S
CZ-4B R/B 3.9 12:15:35 10° NNE 12:19:53 53° E 12:24:17 10° S
ISS -2.5 12:20:29 27° NNW 12:20:29 27° NNW 12:23:08 10° NNE
ALOS 3.0 12:18:12 10° N 12:22:03 31° WNW 12:22:03 31° WNW
Cosmos 1766 Rocket 4.0 12:21:48 10° NNW 12:25:57 38° W 12:30:03 10° SSW
MOS 1 Rocket 3.1 12:23:24 10° SSE 12:27:39 78° ENE 12:31:59 10° N
BREEZE-M DEB (TANK) 3.3 12:27:15 26° NNW 12:28:13 39° NE 12:32:09 10° ESE
SL-27 R/B 3.5 12:25:36 10° S 12:28:56 47° ESE 12:32:22 10° NNE
Cosmos 2360 Rocket 4.5 12:24:34 10° N 12:29:04 24° NE 12:33:33 10° ESE
Cosmos 2344 3.7 12:21:33 10° SSW 12:29:15 77° ESE 12:36:51 10° NE
NOSS 2-2 (D) 2.8 12:27:49 30° SW 12:29:24 74° WNW 12:32:58 10° NNE
Milstar 3 Cent rocket 4.1 12:26:42 10° SSW 12:30:01 19° SSE 12:33:53 10° ESE
Cosmos 1862 3.6 12:26:24 10° N 12:30:28 72° E 12:34:28 10° SSE
Cosmos 1331 Rocket 3.9 12:25:56 10° NNW 12:31:06 71° WSW 12:36:13 10° S
Cosmos 2082 Rocket 3.5 12:33:02 20° WNW 12:33:36 20° NW 12:37:48 10° N
USA 215 4.5 12:27:48 10° ENE 12:33:55 41° SE 12:40:00 10° SSW
CZ-4B R/B 1.2 12:30:55 10° SSE 12:34:11 88° ENE 12:37:23 10° NNW
Cosmos 2315 Rocket 4.3 12:28:55 10° S 12:35:06 70° E 12:41:17 10° NNE
Okean 3 Rocket 4.4 12:32:34 10° NNW 12:36:20 28° W 12:40:06 10° SSW
Cosmos 1461 3.5 12:34:49 25° WNW 12:36:41 36° WSW 12:40:33 10° S
Meteor 1-31 Rocket 3.2 12:34:23 10° N 12:38:02 39° WNW 12:41:39 10° SW
SeaSat 1 3.3 12:36:00 10° SSW 12:40:07 27° WSW 12:42:38 18° WNW
Cosmos 292 Rocket 4.4 12:36:39 12° NW 12:40:32 31° W 12:44:46 10° SSW
ERS-2 3.5 12:37:58 10° SE 12:41:23 40° ENE 12:44:48 10° N
CZ-4B R/B 4.4 12:39:19 10° N 12:42:48 33° WNW 12:45:46 12° SW
Cosmos 1408 Rocket 3.8 12:39:53 10° NNW 12:44:09 47° W 12:48:22 10° SSW
Cosmos 1980 Rocket 2.9 12:40:03 10° NW 12:44:57 30° WSW 12:49:49 10° SSW
Cosmos 1606 3.0 12:44:06 10° S 12:47:56 73° E 12:51:49 10° NNE
Meteor 1-4 Rocket 2.6 12:44:22 10° SSW 12:48:03 59° W 12:51:45 10° N
Envisat 3.3 12:43:37 10° NNE 12:48:42 71° ESE 12:53:45 10° S
Meteor 2-2 Rocket 4.5 12:44:58 10° SSW 12:50:41 51° WNW 12:56:33 10° N
deb Chang Zheng 4 3.4 12:46:28 10° N 12:50:43 71° WNW 12:54:57 10° SSW
SKYMED 2 3.6 12:46:39 10° S 12:50:53 54° W 12:55:09 10° NNW
Cosmos 883 Rocket 4.4 12:45:48 10° SSW 12:51:59 70° W 12:58:09 10° N
Cosmos 2322 Rocket 2.6 12:48:37 10° NNW 12:54:15 66° ENE 12:59:53 10° SSE
Cosmos 1500 Rocket 3.4 12:51:45 10° NNW 12:56:04 70° W 13:00:22 10° S
Cosmos 1842 Rocket 4.3 12:52:10 10° SW 12:56:04 31° WNW 12:59:59 10° NNW
Cosmos 1302 Rocket 4.0 12:53:40 10° NNW 12:58:55 80° WSW 13:04:11 10° SSE
Cosmos 2221 3.4 12:57:52 10° SW 13:01:39 28° WNW 13:05:26 10° NNW
H-2A R/B 3.6 13:01:29 10° SW 13:04:16 16° W 13:07:02 10° NW
Sich 1 3.9 13:01:39 10° N 13:06:01 55° E 13:10:20 10° SSE
CZ-2C R/B 3.8 13:01:38 10° SE 13:06:58 50° ENE 13:12:22 10° N
SAR-Lupe-1 4.1 13:05:43 10° SSE 13:09:16 83° ENE 13:12:52 10° N
SL-16 R/B 2.2 13:07:57 10° NNW 13:13:35 67° WSW 13:19:11 10° S
SJ-7 4.4 13:12:34 10° N 13:16:28 56° WNW 13:20:22 10° SSW
NOSS 2-2 (C) 4.4 13:15:25 10° W 13:18:10 21° NW 13:21:01 10° N
BREEZE M DEB (TANK) 4.5 13:15:57 10° NNW 13:18:55 25° NNE 13:25:52 10° E
CREW DRAGON DEMO-1 DEB 2.8 13:16:15 10° NW 13:19:08 74° NE 13:21:58 10° SE
Cosmos 1833 4.3 13:13:48 10° SSW 13:19:28 89° ESE 13:25:09 10° NNE
H-2A R/B 3.6 13:17:08 10° N 13:20:35 30° WNW 13:24:00 10° SW
